KA5AIE Weather Reports


Display with metric or nautical units.
time (UTC)temp
F
wind
direction
speed
MPH
gust
MPH
rain 1hr
in
rain 24hr
in
rain mn
in
humidity
%
barometer
mb
20201023023235 78 116 0.0 2.0 0.00 0.00 0.00 75 1012.2
20201023021756 79 116 0.0 2.0 0.00 0.00 0.00 74 1012.1
20201023020148 79 116 1.0 3.0 0.00 0.00 0.00 73 1012.1
20201023014632 80 136 0.0 3.0 0.00 0.00 0.00 72 1012.1
20201023013145 80 118 1.0 4.0 0.00 0.00 0.00 71 1012.0
20201023011746 80 115 1.0 3.0 0.00 0.00 0.00 70 1011.9
20201023010142 81 115 1.0 4.0 0.00 0.00 0.00 69 1011.8
20201023004800 81 118 1.0 3.0 0.00 0.00 0.00 69 1011.5
20201023001601 82 106 0.0 3.0 0.00 0.00 0.00 66 1011.3
20201023000114 83 106 0.0 2.0 0.00 0.00 0.00 66 1011.2
20201022234625 83 106 1.0 2.0 0.00 0.00 0.00 65 1011.1
20201022233129 84 107 1.0 4.0 0.00 0.00 0.00 64 1010.9
20201022231612 84 105 2.0 4.0 0.00 0.00 0.00 62 1010.9
20201022230115 84 99 0.0 2.0 0.00 0.00 0.00 62 1010.8
20201022224622 85 99 0.0 7.0 0.00 0.00 0.00 61 1010.8
20201022223222 85 99 2.0 4.0 0.00 0.00 0.00 60 1010.8
20201022221625 86 112 1.0 4.0 0.00 0.00 0.00 60 1010.7
20201022220105 86 109 1.0 7.0 0.00 0.00 0.00 61 1010.7
20201022214644 85 109 1.0 4.0 0.00 0.00 0.00 61 1010.9
20201022213136 86 94 4.0 7.0 0.00 0.00 0.00 61 1010.9
20201022211802 87 95 3.0 6.0 0.00 0.00 0.00 59 1010.9
20201022210250 87 105 2.0 6.0 0.00 0.00 0.00 58 1010.9
20201022204618 88 113 2.0 7.0 0.00 0.00 0.00 58 1011.0
20201022203110 88 143 0.0 3.0 0.00 0.00 0.00 60 1011.2
20201022201600 87 106 0.0 6.0 0.00 0.00 0.00 61 1011.3
20201022200143 86 158 1.0 3.0 0.00 0.00 0.00 61 1011.6
20201022194545 86 113 2.0 6.0 0.00 0.00 0.00 62 1011.8
20201022193052 86 161 0.0 7.0 0.00 0.00 0.00 64 1012.2
20201022191550 86 107 1.0 5.0 0.00 0.00 0.00 62 1012.4
20201022190118 86 113 2.0 6.0 0.00 0.00 0.00 64 1012.7
20201022184529 85 232 1.0 3.0 0.00 0.00 0.00 66 1013.2
20201022183019 83 109 3.0 7.0 0.00 0.00 0.00 69 1013.5
20201022182305 83 107 0.0 6.0 0.00 0.00 0.00 69 1013.9
20201022180029 83 110 2.0 4.0 0.00 0.00 0.00 70 1014.1
20201022174736 82 183 1.0 5.0 0.00 0.00 0.00 73 1014.4
20201022173251 81 113 1.0 6.0 0.00 0.00 0.00 73 1014.8
20201022171651 80 158 1.0 4.0 0.00 0.00 0.00 74 1015.0
20201022170101 80 113 1.0 5.0 0.00 0.00 0.00 74 1015.1
20201022164745 80 232 0.0 4.0 0.00 0.00 0.00 75 1015.2
20201022163152 80 207 2.0 7.0 0.00 0.00 0.00 75 1015.3
20201022161624 79 205 0.0 5.0 0.00 0.00 0.00 77 1015.2
20201022160139 78 178 0.0 7.0 0.00 0.00 0.00 79 1015.3
20201022154740 77 106 0.0 6.0 0.00 0.00 0.00 81 1015.4
20201022153208 76 112 0.0 3.0 0.00 0.00 0.00 83 1015.6
20201022151559 75 121 0.0 3.0 0.00 0.00 0.00 88 1015.7
20201022150048 74 108 3.0 6.0 0.00 0.00 0.00 91 1015.7
20201022144558 73 246 0.0 3.0 0.00 0.00 0.00 92 1015.7
20201022143117 72 103 1.0 4.0 0.00 0.00 0.00 92 1015.7
20201022141537 72 117 0.0 3.0 0.00 0.00 0.00 92 1015.5
20201022140116 71 234 0.0 2.0 0.00 0.00 0.00 92 1015.4
20201022134546 71 159 0.0 1.0 0.00 0.00 0.00 92 1015.4
20201022133104 70 159 0.0 1.0 0.00 0.00 0.00 92 1015.3
20201022131548 70 159 0.0 1.0 0.00 0.00 0.00 92 1015.0
20201022130034 70 159 0.0 1.0 0.00 0.00 0.00 92 1015.0
20201022124539 70 159 0.0 1.0 0.00 0.00 0.00 92 1014.9
20201022123048 70 159 0.0 0.0 0.00 0.00 0.00 92 1015.0
20201022121527 69 159 0.0 1.0 0.00 0.00 0.00 92 1015.0
20201022120038 69 159 0.0 1.0 0.00 0.00 0.00 92 1014.9
20201022114525 69 159 0.0 0.0 0.00 0.00 0.00 91 1014.8
20201022113025 69 159 0.0 0.0 0.00 0.00 0.00 91 1014.8
20201022111555 69 159 0.0 1.0 0.00 0.00 0.00 91 1014.7
20201022110043 69 159 0.0 0.0 0.00 0.00 0.00 91 1014.7
20201022104527 69 159 0.0 1.0 0.00 0.00 0.00 90 1014.6
20201022103047 69 159 0.0 0.0 0.00 0.00 0.00 90 1014.5
20201022101546 70 159 0.0 1.0 0.00 0.00 0.00 90 1014.4
20201022100027 70 159 0.0 0.0 0.00 0.00 0.00 90 1014.3
20201022094514 70 159 0.0 0.0 0.00 0.00 0.00 90 1014.3
20201022093046 70 159 0.0 1.0 0.00 0.00 0.00 89 1014.4
20201022091520 70 159 0.0 1.0 0.00 0.00 0.00 89 1014.5
20201022090036 70 159 0.0 1.0 0.00 0.00 0.00 88 1014.5
20201022084529 71 159 0.0 1.0 0.00 0.00 0.00 88 1014.5
20201022083020 71 159 0.0 2.0 0.00 0.00 0.00 88 1014.5
20201022081521 71 159 0.0 2.0 0.00 0.00 0.00 87 1014.5
20201022080022 71 109 0.0 0.0 0.00 0.00 0.00 86 1014.5
20201022074635 71 109 0.0 0.0 0.00 0.00 0.00 86 1014.5
20201022073210 71 109 0.0 0.0 0.00 0.00 0.00 85 1014.7
20201022071647 72 109 0.0 1.0 0.00 0.00 0.00 85 1014.6
20201022070116 72 108 0.0 1.0 0.00 0.00 0.00 85 1014.7
20201022064651 72 108 0.0 1.0 0.00 0.00 0.00 84 1014.7
20201022063128 73 108 0.0 2.0 0.00 0.00 0.00 83 1014.7
20201022061613 73 108 0.0 1.0 0.00 0.00 0.00 82 1014.8
20201022060103 73 108 0.0 1.0 0.00 0.00 0.00 81 1014.9
20201022054614 74 108 0.0 0.0 0.00 0.00 0.00 80 1015.0
20201022053111 74 108 0.0 0.0 0.00 0.00 0.00 79 1015.0
20201022051608 74 108 0.0 2.0 0.00 0.00 0.00 79 1015.3
20201022050107 75 108 0.0 2.0 0.00 0.00 0.00 78 1015.2
20201022044613 75 108 0.0 2.0 0.00 0.00 0.00 77 1015.4
20201022043128 75 108 1.0 2.0 0.00 0.00 0.00 76 1015.4
20201022041654 76 108 1.0 3.0 0.00 0.00 0.00 75 1015.4
20201022040127 76 109 1.0 3.0 0.00 0.00 0.00 74 1015.4
20201022034625 76 109 2.0 4.0 0.00 0.00 0.00 74 1015.2
20201022033139 76 113 2.0 4.0 0.00 0.00 0.00 73 1015.2
20201022031542 76 107 2.0 3.0 0.00 0.00 0.00 72 1015.2
20201022030129 77 111 1.0 3.0 0.00 0.00 0.00 71 1015.2
20201022024628 77 105 1.0 2.0 0.00 0.00 0.00 70 1015.2